Location: Helion Bumpstead
(52.0500°N, 0.4000°E)
Time: 21:36:50
(UTC+00:00)

USA 59 Rocket - Pass Details

Date: 15 November 2025
Orbit: 370 x 1678 km, 63.3° (Epoch: 14 December)

Event Time Altitude Azimuth Distance (km) Brightness Sun altitude
Exits shadow 06:01:16 11° 335° (NNW) 1,335 1.4 -11.8°
Maximum altitude 06:02:03 12° 351° (N) 1,295 1.5 -11.7°
Drops below altitude 10° 06:03:12 10° 14° (NNE) 1,402 1.9 -11.5°
Sets 06:06:26 0° 50° (NE) 2,358 3.6 -11.0°
